Regional Weather Roundup
Issued by NWS Sioux Falls, SD

Home | Current Version | Previous Version | Graphics & Text | Print | Product List | Glossary On
Versions: 1 2 3 4 5 6 7 8 9 10 11 12 13 14 15 16 17 18 19 20 21 22 23 24 25 26 27 28 29 30 31 32 33 34 35 36 37 38 39 40 41 42 43 44 45 46 47 48 49 50
000
ASUS43 KFSD 220402
RWRFSD

WEATHER ROUNDUP FOR SE SOUTH DAKOTA/SW MINNESOTA/NW IOWA
NATIONAL WEATHER SERVICE SIOUX FALLS SD
1100 PM CDT TUE OCT 21 2014

NOTE: "FAIR" INDICATES FEW OR NO CLOUDS BELOW 12,000 FEET WITH NO
SIGNIFICANT WEATHER AND OR OBSTRUCTIONS TO VISIBILITY.


SDZ038>040-050-052>070-220500-
SOUTHEAST SOUTH DAKOTA

CITY           SKY/WX    TMP DP  RH WIND       PRES   REMARKS
CHAMBERLAIN    CLEAR     63  42  46 SE14      29.85F
HURON          PTCLDY    63  43  48 S16G26    29.89S
MADISON        FAIR      55  41  58 S13G20    30.00S
MITCHELL       PTCLDY    63  43  48 SE22G28   29.93F
SIOUX FALLS    CLEAR     58  42  55 SE17      30.02S
WINNER         FAIR      67  51  56 S22G31    29.83S
YANKTON        CLEAR     61  39  44 SE14      30.00R
$$

MNZ071-072-080-081-089-090-097-098-220500-
SOUTHWEST MINNESOTA

CITY           SKY/WX    TMP DP  RH WIND       PRES   REMARKS
FAIRMONT       CLEAR     48  37  66 SE16      30.12F
JACKSON        CLEAR     50  39  66 SE12G17   30.12R
LUVERNE        CLEAR     55  43  62 SE14      30.06R
MARSHALL       CLEAR     55  39  54 S16       30.03S
MONTEVIDEO     CLEAR     55  41  58 S13G23    30.04S
PIPESTONE      CLEAR     55  43  62 S16G22    30.04R
REDWOOD FALLS  CLEAR     52  40  63 SE16      30.08S
TRACY          CLEAR     55  42  62 S17G25    30.05S
WINDOM         CLEAR     52  39  62 SE15      30.10R
WORTHINGTON    CLEAR     54  41  62 SE12G20   30.09S
$$

IAZ001>003-012>014-020>022-031-032-NEZ013-014-SDZ071-220500-
NORTHWEST IOWA

CITY           SKY/WX    TMP DP  RH WIND       PRES   REMARKS
CHEROKEE       CLEAR     53  43  69 SE12G18   30.10S
DENISON        CLEAR     52  45  76 SE12      30.09R
ESTHERVILLE    CLEAR     49  40  71 SE14      30.12R
LE MARS        CLEAR     54  45  71 SE10      30.06S
ORANGE CITY    CLEAR     55  45  67 SE9G17    30.07S
SHELDON        CLEAR     54  43  66 SE14      30.07S
SIOUX CITY     CLEAR     50  41  71 SE9       30.06S
SPENCER        CLEAR     51  41  68 SE14      30.11R
STORM LAKE     CLEAR     50  43  76 SE15      30.12R
$$

ABBREVIATIONS USED IN REMARKS
   TC - TEMPERATURE IN CELSIUS
  WCI - WIND CHILL INDEX
   HX - HEAT INDEX
  VSB - VISIBILITY




USA.gov is the U.S. government's official web portal to all federal, state and local government web resources and services.